Lacon, IL

10:19 AM CST on December 16, 2017 (GMT -0600)
Lacon

Weather History for KC75 - November, 2013

Change the Weather History Date:

Thursday, November 14, 2013

  Actual Average (KVYS) Record (KVYS)
Temperature  
Mean Temperature 42 °F -  
Max Temperature 51 °F 48 °F 76 °F (1971)
Min Temperature 32 °F 29 °F 6 °F (1986)
Degree Days  
Heating Degree Days 24    
Moisture  
Dew Point 23 °F    
Average Humidity 48    
Maximum Humidity 61    
Minimum Humidity 35    
Precipitation  
Precipitation 0.00 in - - ()
Sea Level Pressure  
Sea Level Pressure 30.05 in    
Wind  
Wind Speed 12 mph (SSW)    
Max Wind Speed 18 mph    
Max Gust Speed 24 mph    
Visibility 10 miles    
Events      
Averages and records for this station are not official NWS values.
T = Trace of Precipitation, MM = Missing Value Source: NWS Daily Summary

Daily Weather History Graph

Daily Weather History Graph

Search for Another Location

Airport or City:

Trip Planner

Search our weather history database for the weather conditions in past years. The results will help you decide how hot, cold, wet, or windy it might be!

Date:

Astronomy

Nov. 14, 2013 Rise Set
Actual Time 6:43 AM CST 4:39 PM CST
Civil Twilight 6:14 AM CST 5:08 PM CST
Nautical Twilight 5:41 AM CST 5:41 PM CST
Astronomical Twilight 5:08 AM CST 6:14 PM CST
Moon 3:01 PM CST (11/14) 3:37 AM CST (11/14)
Length of Visible Light 10h 54m
Length of Day
9h 55m
Waxing Gibbous, 92% of the Moon is Illuminated
Nov 14
Waxing Gibbous
Nov 17
Full
Nov 25
Last Quarter
Dec 2
New
Dec 9
First Quarter

Hourly Weather History & Observations

Time (CST) Temp. Windchill Dew Point Humidity Pressure Visibility Wind Dir Wind Speed Gust Speed Precip Events Conditions
12:15 AM 34.0 °F 25.5 °F 20.3 °F 57% 30.19 in 10.0 mi SSW 11.5 mph - N/A   Clear
12:35 AM 34.0 °F 25.0 °F 19.6 °F 56% 30.18 in 10.0 mi SSW 12.7 mph 18.4 mph N/A   Clear
12:55 AM 34.2 °F 24.8 °F 19.4 °F 55% 30.17 in 10.0 mi SSW 13.8 mph 20.7 mph N/A   Clear
1:15 AM 34.0 °F 26.0 °F 19.4 °F 55% 30.17 in 10.0 mi SSW 10.4 mph - N/A   Clear
1:35 AM 33.8 °F 25.8 °F 20.1 °F 57% 30.18 in 10.0 mi SSW 10.4 mph 16.1 mph N/A   Clear
1:55 AM 34.0 °F 26.6 °F 20.1 °F 57% 30.17 in 10.0 mi SSW 9.2 mph 17.3 mph N/A   Clear
2:15 AM 34.0 °F 25.0 °F 20.1 °F 57% 30.17 in 10.0 mi SSW 12.7 mph 17.3 mph N/A   Clear
2:35 AM 34.0 °F 25.5 °F 20.1 °F 57% 30.16 in 10.0 mi SSW 11.5 mph 18.4 mph N/A   Clear
2:55 AM 34.2 °F 25.7 °F 20.1 °F 57% 30.16 in 10.0 mi SSW 11.5 mph 20.7 mph N/A   Clear
3:15 AM 33.8 °F 24.8 °F 19.2 °F 55% 30.15 in 10.0 mi SSW 12.7 mph 18.4 mph N/A   Clear
3:35 AM 34.0 °F 24.2 °F 18.5 °F 53% 30.13 in 10.0 mi SSW 15.0 mph 19.6 mph N/A   Clear
3:55 AM 33.8 °F 24.3 °F 18.5 °F 54% 30.14 in 10.0 mi SSW 13.8 mph 19.6 mph N/A   Clear
4:15 AM 33.6 °F 25.6 °F 18.5 °F 54% 30.13 in 10.0 mi SSW 10.4 mph 17.3 mph N/A   Clear
4:35 AM 33.3 °F 23.7 °F 19.0 °F 56% 30.13 in 10.0 mi SSW 13.8 mph 18.4 mph N/A   Clear
4:55 AM 33.4 °F 23.9 °F 19.2 °F 56% 30.12 in 10.0 mi SSW 13.8 mph 18.4 mph N/A   Clear
5:15 AM 33.1 °F 23.4 °F 19.4 °F 57% 30.12 in 10.0 mi SSW 13.8 mph 18.4 mph N/A   Clear
5:35 AM 33.1 °F 23.9 °F 19.6 °F 58% 30.11 in 10.0 mi SSW 12.7 mph 20.7 mph N/A   Clear
5:55 AM 33.1 °F 23.4 °F 19.4 °F 57% 30.11 in 10.0 mi SSW 13.8 mph 20.7 mph N/A   Clear
6:15 AM 32.9 °F 24.1 °F 19.6 °F 58% 30.10 in 10.0 mi SSW 11.5 mph 18.4 mph N/A   Clear
6:35 AM 32.7 °F 23.4 °F 19.9 °F 59% 30.11 in 10.0 mi SW 12.7 mph 19.6 mph N/A   Clear
6:55 AM 32.5 °F 24.2 °F 20.3 °F 61% 30.10 in 10.0 mi SSW 10.4 mph - N/A   Clear
7:15 AM 32.9 °F 23.7 °F 20.3 °F 60% 30.11 in 10.0 mi SSW 12.7 mph 18.4 mph N/A   Clear
7:35 AM 33.8 °F 25.8 °F 20.3 °F 58% 30.10 in 10.0 mi SSW 10.4 mph 17.3 mph N/A   Clear
7:55 AM 34.7 °F 25.5 °F 20.7 °F 57% 30.11 in 10.0 mi SSW 13.8 mph 20.7 mph N/A   Clear
8:15 AM 35.2 °F 26.2 °F 20.8 °F 56% 30.11 in 10.0 mi SSW 13.8 mph 20.7 mph N/A   Clear
8:35 AM 36.5 °F 27.8 °F 21.4 °F 54% 30.11 in 10.0 mi SSW 13.8 mph 19.6 mph N/A   Clear
8:55 AM 37.0 °F 28.1 °F 21.4 °F 53% 30.11 in 10.0 mi SSW 15.0 mph 19.6 mph N/A   Clear
9:15 AM 37.9 °F 29.2 °F 22.1 °F 53% 30.10 in 10.0 mi SSW 15.0 mph - N/A   Clear
9:35 AM 39.0 °F 31.4 °F 22.3 °F 51% 30.10 in 10.0 mi SSW 12.7 mph - N/A   Clear
9:55 AM 40.3 °F 33.0 °F 22.6 °F 49% 30.09 in 10.0 mi SSW 12.7 mph - N/A   Clear
10:15 AM 41.4 °F 33.6 °F 22.6 °F 47% 30.09 in 10.0 mi SSW 15.0 mph - N/A   Clear
10:35 AM 42.8 °F 36.2 °F 23.0 °F 46% 30.08 in 10.0 mi SW 12.7 mph - N/A   Clear
10:55 AM 43.9 °F 36.8 °F 23.5 °F 45% 30.07 in 10.0 mi SSW 15.0 mph - N/A   Clear
11:15 AM 44.4 °F 38.6 °F 23.4 °F 43% 30.06 in 10.0 mi SSW 11.5 mph 18.4 mph N/A   Clear
11:35 AM 45.9 °F 39.7 °F 23.5 °F 41% 30.04 in 10.0 mi SSW 13.8 mph 18.4 mph N/A   Clear
11:55 AM 47.1 °F - 23.7 °F 40% 30.03 in 10.0 mi SSW 18.4 mph 24.2 mph N/A   Clear
12:15 PM 47.5 °F - 23.9 °F 40% 30.03 in 10.0 mi SSW 16.1 mph 24.2 mph N/A   Clear
12:35 PM 47.8 °F - 23.9 °F 39% 30.02 in 10.0 mi SSW 16.1 mph 21.9 mph N/A   Clear
12:55 PM 50.2 °F - 25.2 °F 38% 30.01 in 10.0 mi SSW 13.8 mph 18.4 mph N/A   Clear
1:15 PM 50.2 °F - 23.7 °F 36% 30.00 in 10.0 mi SSW 15.0 mph - N/A   Clear
1:35 PM 50.9 °F - 24.8 °F 36% 29.99 in 10.0 mi SSW 15.0 mph 21.9 mph N/A   Clear
1:55 PM 51.1 °F - 25.2 °F 36% 29.98 in 10.0 mi SSW 12.7 mph 17.3 mph N/A   Clear
2:15 PM 50.9 °F - 24.6 °F 36% 29.97 in 10.0 mi SSW 15.0 mph 20.7 mph N/A   Clear
2:35 PM 50.7 °F - 24.6 °F 36% 29.97 in 10.0 mi SSW 10.4 mph 18.4 mph N/A   Clear
2:55 PM 50.7 °F - 23.9 °F 35% 29.97 in 10.0 mi SSW 12.7 mph 20.7 mph N/A   Clear
3:15 PM 50.0 °F - 23.7 °F 36% 29.98 in 10.0 mi SSW 11.5 mph 18.4 mph N/A   Clear
3:35 PM 50.0 °F - 24.4 °F 37% 29.98 in 10.0 mi SSW 9.2 mph - N/A   Clear
3:55 PM 49.6 °F - 23.7 °F 36% 29.97 in 10.0 mi SSW 10.4 mph 18.4 mph N/A   Clear
4:15 PM 49.6 °F - 23.2 °F 35% 29.96 in 10.0 mi SSW 9.2 mph 19.6 mph N/A   Clear
4:35 PM 48.7 °F - 23.0 °F 36% 29.96 in 10.0 mi SSW 11.5 mph 18.4 mph N/A   Clear
4:55 PM 48.7 °F - 22.5 °F 36% 29.96 in 10.0 mi SSW 10.4 mph 19.6 mph N/A   Clear
5:15 PM 47.8 °F - 22.3 °F 37% 29.96 in 10.0 mi SSW 13.8 mph 17.3 mph N/A   Clear
5:35 PM 47.8 °F - 21.9 °F 36% 29.96 in 10.0 mi SSW 11.5 mph 16.1 mph N/A   Clear
5:55 PM 47.8 °F - 21.9 °F 36% 29.97 in 10.0 mi SW 10.4 mph - N/A   Clear
6:15 PM 46.8 °F - 22.5 °F 38% 29.98 in 10.0 mi SW 5.8 mph - N/A   Clear
6:35 PM 45.5 °F 42.5 °F 22.6 °F 41% 29.98 in 10.0 mi SW 5.8 mph - N/A   Clear
6:55 PM 45.7 °F 41.0 °F 23.5 °F 42% 29.98 in 10.0 mi SSW 9.2 mph - N/A   Clear
7:15 PM 46.0 °F 41.0 °F 23.5 °F 41% 29.98 in 10.0 mi SSW 10.4 mph 16.1 mph N/A   Clear
7:35 PM 45.5 °F 41.3 °F 23.9 °F 43% 29.98 in 10.0 mi SSW 8.1 mph - N/A   Clear
7:55 PM 45.3 °F 43.0 °F 24.8 °F 45% 29.99 in 10.0 mi SW 4.6 mph - N/A   Clear
8:15 PM 44.6 °F 39.7 °F 25.0 °F 46% 29.99 in 10.0 mi SSW 9.2 mph - N/A   Clear
8:35 PM 44.6 °F 39.7 °F 25.7 °F 48% 29.99 in 10.0 mi SSW 9.2 mph - N/A   Clear
8:55 PM 43.7 °F 39.1 °F 25.7 °F 49% 29.99 in 10.0 mi SSW 8.1 mph - N/A   Clear
9:15 PM 43.0 °F 38.8 °F 25.5 °F 50% 29.99 in 10.0 mi SSW 6.9 mph - N/A   Clear
9:35 PM 42.4 °F 38.1 °F 25.7 °F 52% 29.99 in 10.0 mi SSW 6.9 mph - N/A   Clear
9:55 PM 41.7 °F 37.3 °F 26.2 °F 54% 29.98 in 10.0 mi SSW 6.9 mph - N/A   Clear
10:15 PM 42.1 °F 36.6 °F 26.2 °F 53% 29.99 in 10.0 mi SSW 9.2 mph - N/A   Clear
10:35 PM 41.9 °F 36.9 °F 26.6 °F 55% 29.99 in 10.0 mi SSW 8.1 mph - N/A   Clear
10:55 PM 41.2 °F 36.6 °F 26.6 °F 56% 29.99 in 10.0 mi SSW 6.9 mph - N/A   Clear
11:15 PM 41.4 °F 35.7 °F 27.0 °F 57% 29.99 in 10.0 mi SSW 9.2 mph - N/A   Clear
11:35 PM 41.9 °F 36.3 °F 26.6 °F 55% 29.99 in 10.0 mi SSW 9.2 mph - N/A   Clear
11:55 PM 41.4 °F 36.2 °F 26.6 °F 56% 29.98 in 10.0 mi SSW 8.1 mph - N/A   Clear